[[{"header":{"parameterUnit":"m.s-1","parameterCategory":1,"la1":30.2991,"la2":30.254,"lo1":-89.0895,"lo2":-89.0444,"dy":0.0017,"dx":0.0017,"nx":28,"ny":28,"refTime":"2025-02-28T09:00:00:Z","depth":0,"parameterNumber":2,"parameterNumberName":"U-component_of_WINDS"},"data":[0,0,0,0,0,0,0,0,0,0,0,0,0,0,0,0,0,0,0,0,0,0,0,0,0,0,0,0,0,0,0,0,0,0,0,0,0,0,0,0,0,0,0,0,0,0,0,0,0,0,0,0,0,0,0,0,0,0,1.4255,1.4255,0,1.4271,1.4271,1.4271,1.421,1.4208,1.4206,1.4204,1.4227,1.4229,1.4231,0,0,0,0,0,0,0,0,0,0,0,0,0,1.4179,1.4181,1.4255,1.4255,1.4255,1.427,1.4271,1.4271,1.421,1.4208,1.4206,1.4204,1.4226,1.4229,1.4232,0,0,0,0,0,0,0,0,0,0,0,0,0,1.4205,1.4181,1.4255,1.4227,1.4224,1.427,1.4271,1.4271,1.4211,1.4208,1.4205,1.4203,1.4225,1.4229,1.4232,1.4308,0,0,1.4243,1.4244,0,0,0,0,0,0,0,0,1.4204,1.4208,1.4231,1.4229,1.4226,1.4235,1.4252,1.4284,1.4211,1.4216,1.4204,1.4201,1.4232,1.4235,1.4244,1.4309,1.431,1.4243,1.4245,1.4246,1.4247,0,0,0,0,0,0,0,1.4202,1.4207,1.4261,1.4231,1.4228,1.4215,1.4216,1.4258,1.424,1.4215,1.4211,1.4213,1.4231,1.4241,1.4244,1.431,1.4243,1.4246,1.4248,1.4249,1.4441,1.4444,0,0,0,0,0,0,1.4203,1.4206,1.4261,1.4262,1.4208,1.4219,1.422,1.4235,1.4239,1.4237,1.4216,1.421,1.4236,1.424,1.4245,1.4335,1.4246,1.425,1.4252,1.4438,1.4441,1.4445,0,0,0,0,0,0,1.4202,1.4208,1.426,1.4233,1.4238,1.4223,1.4241,1.4237,1.4247,1.4239,1.4236,1.4229,1.4234,1.424,1.4293,1.4335,1.4251,1.4254,1.4434,1.4439,1.4443,1.4516,0,0,0,0,0,0,1.42,1.4208,1.4235,1.4234,1.424,1.4306,1.4244,1.4239,1.4253,1.4246,1.4251,1.4249,1.4233,1.4288,1.4296,1.4338,1.4257,1.443,1.4436,1.4442,1.451,1.4523,1.4534,0,0,0,0,0,1.4197,1.4257,1.4237,1.4244,1.4273,1.4308,1.4312,1.429,1.4256,1.4285,1.4279,1.4249,1.4329,1.4294,1.4303,1.4347,1.4428,1.4435,1.4441,1.4505,1.452,1.4534,0,0,0,0,0,0,1.4266,1.4256,1.4234,1.4294,1.4302,1.4298,1.4333,1.4307,1.4327,1.432,1.4294,1.4296,1.4354,1.4355,1.4316,1.4421,1.4373,1.4382,1.4418,1.4433,1.4445,1.4444,1.426,0,0,0,0,0,1.4287,1.4315,1.4305,1.436,1.4365,1.4348,1.4363,1.4345,1.4354,1.4357,1.4356,1.4367,1.4395,1.4414,1.4439,1.451,1.4511,1.4545,1.4556,1.4566,1.4575,1.4614,1.4629,1.4467,1.4467,1.4467,0,0,1.4333,1.4331,1.4351,1.4373,1.4378,1.4409,1.4352,1.4387,1.4411,1.4363,1.4413,1.4413,1.4423,1.4486,1.4514,1.4489,1.462,1.4575,1.4583,1.4586,1.4623,1.4638,1.4652,1.4472,1.4471,1.447,0,0,1.4433,1.4433,1.4479,1.4484,1.4491,1.448,1.4491,1.4491,1.4488,1.4537,1.4502,1.4531,1.4579,1.4589,1.46,1.4704,1.4678,1.4713,1.4776,1.4814,1.4827,1.4839,1.4877,1.4892,1.4722,1.4722,1.4722,0,1.449,1.4533,1.4506,1.4544,1.4556,1.4513,1.456,1.4567,1.4583,1.4593,1.4565,1.4625,1.4629,1.4694,1.4719,1.4729,1.4743,1.4713,1.4827,1.4838,1.4848,1.4885,1.49,1.4726,1.4726,1.4725,1.4725,0,1.4604,1.4635,1.4671,1.4685,1.4701,1.4744,1.4726,1.4746,1.4727,1.4719,1.4771,1.4774,1.48,1.4814,1.4797,1.4877,1.4862,1.4831,1.4782,1.4869,1.4903,1.4917,1.4732,1.4731,1.4729,1.4728,0,0,1.4747,1.4746,1.476,1.4766,1.4771,1.4796,1.4837,1.486,1.4879,1.4891,1.4927,1.4969,1.494,1.4953,1.4936,1.497,1.5055,1.4935,1.4935,1.4959,1.5146,1.5171,1.5187,1.5037,1.5039,1.5041,1.5146,0,1.4846,1.4915,1.4892,1.4963,1.4992,1.4952,1.4989,1.4997,1.4992,1.5018,1.5012,1.5043,1.5002,1.501,1.5041,1.5038,1.5093,1.503,1.5072,1.5074,1.5072,1.5205,1.523,1.5328,1.5159,1.5161,1.5163,0,1.497,1.4986,1.506,1.506,1.5072,1.5105,1.5125,1.5149,1.5159,1.5153,1.5167,1.5144,1.5187,1.5137,1.5198,1.5156,1.5172,1.5173,1.5176,1.518,1.5125,1.5214,1.5359,1.5374,1.5183,1.5182,1.518,0,1.5069,1.5109,1.5158,1.5165,1.5167,1.5191,1.5194,1.52,1.5216,1.5234,1.5244,1.5268,1.5282,1.5302,1.5287,1.5251,1.5351,1.5299,1.5349,1.535,1.5372,1.5371,1.5524,1.5381,1.5381,1.5381,1.538,0,1.5183,1.523,1.5203,1.5234,1.5286,1.526,1.5313,1.5311,1.5317,1.5349,1.5316,1.5346,1.5324,1.5353,1.5342,1.5395,1.5401,1.5399,1.5395,1.5402,1.5403,1.5413,1.5407,1.5384,1.5384,1.5383,1.5382,0,1.5303,1.5286,1.5338,1.5335,1.5335,1.5374,1.5372,1.5402,1.5394,1.5434,1.5442,1.5431,1.5463,1.545,1.5485,1.5477,1.5546,1.5533,1.5542,1.5539,1.559,1.5586,1.5756,1.5777,1.562,1.5621,1.5623,0,1.5376,1.5411,1.5412,1.5429,1.5433,1.5462,1.5478,1.5455,1.5473,1.5487,1.5515,1.5545,1.5567,1.5622,1.5618,1.5646,1.5634,1.5692,1.5638,1.5644,1.5637,1.5635,1.5639,1.5703,1.5705,1.5706,1.5707,0,1.551,1.55,1.5523,1.5543,1.5563,1.5578,1.5591,1.5608,1.5586,1.5608,1.564,1.5657,1.5693,1.5724,1.5748,1.5753,1.5728,1.5724,1.5737,1.5745,1.5749,1.5749,1.5573,1.572,1.5719,1.5718,1.5717,1.5717,1.561,1.5639,1.5644,1.5671,1.5678,1.5692,1.5719,1.5714,1.574,1.5766,1.5751,1.5789,1.58,1.5829,1.5838,1.5869,1.5847,1.5866,1.5871,1.5876,1.5883,1.5744,1.5873,1.5873,1.5872,1.5872,1.5872,0,1.5742,1.5744,1.5769,1.5787,1.5809,1.5781,1.5794,1.5815,1.5848,1.5859,1.5881,1.5919,1.5949,1.5948,1.5976,1.6001,1.5991,1.601,1.6008,1.601,1.5901,1.5887,1.6018,1.6018,1.6018,1.6018,1.6018,1.6018,1.5814,1.5863,1.5854,1.5908,1.5909,1.5945,1.5955,1.5968,1.5976,1.6019,1.6043,1.6041,1.6048,1.6076,1.6103,1.6102,1.6115,1.6139,1.6134,1.6032,1.6017,1.6004,1.5991,1.6141,1.6141,1.624,1.6241,1.6242]},{"header":{"parameterUnit":"m.s-1","parameterCategory":1,"la1":30.2991,"la2":30.254,"lo1":-89.0895,"lo2":-89.0444,"dy":0.0017,"dx":0.0017,"nx":28,"ny":28,"refTime":"2025-02-28T09:00:00:Z","depth":0,"parameterNumber":3,"parameterNumberName":"V-component_of_WINDS"},"data":[0,0,0,0,0,0,0,0,0,0,0,0,0,0,0,0,0,0,0,0,0,0,0,0,0,0,0,0,0,0,0,0,0,0,0,0,0,0,0,0,0,0,0,0,0,0,0,0,0,0,0,0,0,0,0,0,0,0,2.2737,2.2738,0,2.2822,2.2822,2.2823,2.2799,2.2797,2.2796,2.2794,2.2875,2.2879,2.2883,0,0,0,0,0,0,0,0,0,0,0,0,0,2.2545,2.2549,2.2737,2.2738,2.2739,2.2821,2.2823,2.2824,2.2799,2.2797,2.2795,2.2793,2.2874,2.2879,2.2883,0,0,0,0,0,0,0,0,0,0,0,0,0,2.2629,2.255,2.2737,2.2737,2.2738,2.2821,2.2823,2.2824,2.28,2.2797,2.2795,2.2792,2.2873,2.2878,2.2884,2.297,0,0,2.2901,2.2903,0,0,0,0,0,0,0,0,2.2624,2.2636,2.2736,2.2737,2.2738,2.2797,2.2785,2.2873,2.2801,2.2776,2.2794,2.2791,2.2851,2.2858,2.288,2.2974,2.2977,2.2901,2.2905,2.2907,2.2909,0,0,0,0,0,0,0,2.2619,2.2632,2.277,2.2737,2.2739,2.273,2.2739,2.2801,2.2827,2.2778,2.2777,2.2787,2.2851,2.2874,2.2881,2.2979,2.2901,2.2906,2.291,2.2912,2.3143,2.3146,0,0,0,0,0,0,2.2613,2.2628,2.2767,2.2773,2.2674,2.2736,2.2746,2.2781,2.2826,2.2831,2.2789,2.2786,2.2866,2.2875,2.2884,2.2986,2.2907,2.2913,2.2916,2.3141,2.3144,2.3147,0,0,0,0,0,0,2.2609,2.2626,2.2764,2.27,2.2717,2.2742,2.2781,2.2784,2.2807,2.2835,2.2838,2.2809,2.2864,2.2876,2.2948,2.2989,2.2915,2.292,2.3137,2.3142,2.3145,2.3192,0,0,0,0,0,0,2.2604,2.2624,2.266,2.2701,2.272,2.283,2.2784,2.2787,2.2818,2.2814,2.2854,2.2858,2.2863,2.294,2.2954,2.2995,2.2925,2.3134,2.3139,2.3144,2.3187,2.3197,2.3206,0,0,0,0,0,2.2597,2.2669,2.2662,2.2679,2.2766,2.2832,2.2843,2.2849,2.2821,2.2855,2.2872,2.2857,2.2982,2.2948,2.2963,2.3006,2.3131,2.3138,2.3144,2.3183,2.3195,2.3206,0,0,0,0,0,0,2.2632,2.2675,2.2667,2.2756,2.279,2.2828,2.2872,2.2862,2.2905,2.2899,2.2902,2.2912,2.2985,2.3003,2.2964,2.309,2.3052,2.3062,2.3076,2.3088,2.3098,2.3092,2.2929,0,0,0,0,0,2.265,2.2703,2.2736,2.2811,2.2829,2.2847,2.2876,2.2878,2.2913,2.2927,2.295,2.2983,2.3029,2.306,2.3104,2.3189,2.3195,2.3226,2.3235,2.3243,2.3251,2.3293,2.3307,2.3167,2.3167,2.3167,0,0,2.2688,2.2718,2.2751,2.2819,2.2846,2.2897,2.286,2.2917,2.2954,2.2935,2.3005,2.3022,2.3059,2.3137,2.3172,2.3154,2.3291,2.3251,2.3257,2.3261,2.3301,2.3314,2.3326,2.3171,2.3171,2.317,0,0,2.2783,2.2812,2.2876,2.2903,2.2945,2.2956,2.2971,2.3009,2.302,2.309,2.3076,2.3119,2.32,2.3225,2.3249,2.3349,2.3336,2.3363,2.3413,2.3454,2.3465,2.3475,2.3508,2.3521,2.3371,2.3371,2.3371,0,2.2824,2.2904,2.2909,2.2967,2.2995,2.2981,2.3043,2.3069,2.3122,2.3141,2.312,2.3219,2.3243,2.3325,2.3349,2.3369,2.3384,2.3359,2.3464,2.3473,2.3482,2.3514,2.3527,2.3374,2.3374,2.3374,2.3373,0,2.295,2.3005,2.3051,2.3104,2.3137,2.3197,2.3209,2.3241,2.3238,2.3251,2.3319,2.3347,2.3396,2.3415,2.3413,2.3496,2.3483,2.3463,2.3424,2.3499,2.3528,2.3541,2.3379,2.3377,2.3377,2.3376,0,0,2.3073,2.3125,2.3142,2.3164,2.3207,2.3248,2.3304,2.3353,2.3379,2.3415,2.3461,2.3528,2.3509,2.3535,2.3535,2.3572,2.3646,2.3546,2.3547,2.3563,2.3736,2.375,2.3765,2.3637,2.3639,2.3641,2.3732,0,2.317,2.3273,2.3277,2.3369,2.3418,2.3403,2.3452,2.3481,2.3493,2.3534,2.3546,2.3592,2.3565,2.358,2.3616,2.363,2.368,2.3623,2.3677,2.3679,2.3668,2.3781,2.3797,2.3882,2.3744,2.3746,2.3747,0,2.3298,2.3338,2.3436,2.3468,2.3489,2.3533,2.3575,2.3616,2.3647,2.3653,2.3681,2.3675,2.3729,2.3689,2.3762,2.3723,2.3745,2.3754,2.3758,2.3763,2.3718,2.3787,2.3909,2.3921,2.3766,2.3765,2.3763,0,2.3375,2.3453,2.352,2.354,2.358,2.3611,2.3629,2.3658,2.3685,2.3722,2.3739,2.378,2.3803,2.3834,2.3837,2.3808,2.391,2.3871,2.3914,2.3914,2.3937,2.3935,2.4063,2.3952,2.3952,2.3952,2.3951,0,2.3482,2.3542,2.3555,2.3596,2.3661,2.3664,2.3727,2.3742,2.3768,2.3809,2.3798,2.3837,2.384,2.3879,2.3881,2.394,2.3951,2.3955,2.3955,2.3956,2.3955,2.397,2.3964,2.3955,2.3954,2.3954,2.3953,0,2.358,2.3591,2.3663,2.3695,2.3703,2.375,2.3775,2.3813,2.3822,2.3875,2.3887,2.3902,2.3947,2.3953,2.4006,2.4007,2.4077,2.4072,2.4067,2.4066,2.4109,2.4104,2.425,2.4268,2.4146,2.4148,2.4149,0,2.3648,2.3693,2.3729,2.3756,2.3776,2.3821,2.3848,2.3851,2.388,2.3917,2.395,2.3994,2.4029,2.4101,2.4114,2.4153,2.4148,2.4196,2.4154,2.4152,2.4147,2.4144,2.4147,2.4204,2.4205,2.4207,2.4207,0,2.3766,2.3769,2.381,2.3852,2.3886,2.3919,2.395,2.3972,2.3978,2.4011,2.4057,2.4084,2.4137,2.418,2.4218,2.4233,2.4221,2.422,2.4232,2.4234,2.4229,2.423,2.4089,2.4217,2.4216,2.4216,2.4215,2.4215,2.385,2.3888,2.3919,2.3964,2.3987,2.4016,2.4052,2.4065,2.4105,2.4149,2.4147,2.4197,2.4223,2.4274,2.4291,2.4328,2.4312,2.433,2.4334,2.4339,2.4342,2.4223,2.4335,2.4335,2.4335,2.4335,2.4334,0,2.3966,2.3985,2.4026,2.407,2.4104,2.409,2.4122,2.4152,2.4196,2.4223,2.4257,2.4308,2.4349,2.4365,2.4403,2.443,2.4425,2.444,2.4438,2.4441,2.4355,2.434,2.4443,2.4443,2.4443,2.4443,2.4443,2.4443,2.4031,2.4095,2.41,2.4173,2.419,2.424,2.4259,2.4284,2.4305,2.4363,2.4397,2.4407,2.4428,2.4468,2.4503,2.4507,2.4521,2.4538,2.4539,2.4458,2.4447,2.4437,2.4423,2.4541,2.4542,2.4621,2.4622,2.4623]}]]